[[{"header":{"parameterUnit":"m.s-1","parameterCategory":1,"la1":30.2991,"la2":30.254,"lo1":-89.0895,"lo2":-89.0444,"dy":0.0017,"dx":0.0017,"nx":28,"ny":28,"refTime":"2024-06-26T09:00:00:Z","depth":0,"parameterNumber":2,"parameterNumberName":"U-component_of_WINDS"},"data":[0,0,0,0,0,0,0,0,0,0,0,0,0,0,0,0,0,0,0,0,0,0,0,0,0,0,0,0,0,0,0,0,0,0,0,0,0,0,0,0,0,0,0,0,0,0,0,0,0,0,0,0,0,0,0,0,0,0,3.3426,3.3426,0,3.3446,3.3446,3.3446,3.3323,3.3319,3.3316,3.3313,3.3335,3.3338,3.3342,0,0,0,0,0,0,0,0,0,0,0,0,0,3.328,3.3283,3.3425,3.3426,3.3426,3.3446,3.3446,3.3447,3.3324,3.3319,3.3315,3.3311,3.3333,3.3338,3.3342,0,0,0,0,0,0,0,0,0,0,0,0,0,3.3326,3.3284,3.3425,3.3367,3.3362,3.3446,3.3446,3.3447,3.3324,3.3319,3.3314,3.3309,3.3332,3.3337,3.3343,3.3484,0,0,3.3361,3.3363,0,0,0,0,0,0,0,0,3.3324,3.3332,3.3375,3.3371,3.3366,3.3376,3.3403,3.3459,3.3326,3.3339,3.3313,3.3306,3.3353,3.3357,3.3372,3.3485,3.3486,3.3361,3.3365,3.3367,3.3369,0,0,0,0,0,0,0,3.3321,3.333,3.3434,3.3376,3.337,3.334,3.3341,3.3413,3.3375,3.3337,3.3328,3.3332,3.3349,3.3367,3.3372,3.3487,3.3361,3.3366,3.337,3.3372,3.3717,3.3723,0,0,0,0,0,0,3.3325,3.3328,3.3433,3.3434,3.3331,3.3347,3.3348,3.3378,3.3374,3.3368,3.3337,3.3327,3.3359,3.3365,3.3372,3.3538,3.3367,3.3373,3.3376,3.3712,3.3718,3.3725,0,0,0,0,0,0,3.3323,3.3336,3.3432,3.3379,3.3389,3.3355,3.3391,3.3382,3.3399,3.3374,3.3366,3.3362,3.3355,3.3364,3.3457,3.3537,3.3375,3.3381,3.3705,3.3714,3.3722,3.3871,0,0,0,0,0,0,3.3319,3.3336,3.3389,3.3381,3.3392,3.3518,3.3395,3.3386,3.3409,3.3396,3.3395,3.339,3.3352,3.3449,3.3463,3.3542,3.3385,3.3698,3.3709,3.3719,3.3859,3.3883,3.3905,0,0,0,0,0,3.3314,3.343,3.3392,3.3406,3.3458,3.3523,3.3529,3.3483,3.3416,3.347,3.3453,3.339,3.3525,3.346,3.3474,3.3556,3.3692,3.3706,3.3718,3.3848,3.3879,3.3904,0,0,0,0,0,0,3.3449,3.3428,3.3386,3.3503,3.3516,3.3502,3.3568,3.3516,3.3548,3.3534,3.3475,3.3476,3.358,3.3577,3.3504,3.3693,3.3597,3.3614,3.3692,3.372,3.3743,3.3742,3.339,0,0,0,0,0,3.3492,3.3546,3.3525,3.363,3.3638,3.3603,3.3629,3.3592,3.3603,3.3607,3.3598,3.3611,3.3656,3.3687,3.3728,3.3857,3.3855,3.392,3.3943,3.3962,3.3978,3.4046,3.4075,3.3767,3.3767,3.3766,0,0,3.3583,3.3578,3.3616,3.3657,3.3662,3.372,3.3608,3.3673,3.3716,3.3617,3.3706,3.3699,3.3709,3.3822,3.3871,3.3822,3.4062,3.3978,3.3994,3.3999,3.4063,3.4092,3.4118,3.3775,3.3774,3.3772,0,0,3.3777,3.3778,3.3866,3.3874,3.3883,3.3858,3.3879,3.3873,3.3865,3.3953,3.388,3.3929,3.4008,3.4019,3.4035,3.4233,3.4176,3.4247,3.4368,3.4436,3.446,3.4482,3.4554,3.458,3.4262,3.4263,3.4263,0,3.3888,3.3972,3.3918,3.3989,3.401,3.3922,3.4012,3.4021,3.4044,3.4061,3.4005,3.4103,3.4104,3.4218,3.4267,3.4282,3.4305,3.4248,3.4461,3.4482,3.4501,3.4569,3.4596,3.4271,3.427,3.4269,3.4269,0,3.4109,3.4168,3.4238,3.4262,3.429,3.437,3.4329,3.4363,3.4324,3.4305,3.4395,3.4392,3.4431,3.4455,3.4417,3.4564,3.4534,3.4471,3.4374,3.454,3.4603,3.4629,3.4284,3.4281,3.4278,3.4276,0,0,3.4391,3.4383,3.441,3.442,3.4423,3.4468,3.4543,3.4581,3.4613,3.463,3.4693,3.4762,3.4704,3.4722,3.4684,3.4743,3.4901,3.4672,3.4672,3.4717,3.5065,3.5114,3.5145,3.4863,3.4867,3.4871,3.5065,0,3.4582,3.4711,3.4665,3.4797,3.4851,3.4768,3.4834,3.4844,3.4827,3.4871,3.4852,3.4903,3.4821,3.4832,3.4887,3.4871,3.4971,3.4856,3.4922,3.4925,3.4924,3.5178,3.523,3.5413,3.5089,3.5093,3.5096,0,3.4824,3.4851,3.4989,3.4983,3.5004,3.5064,3.5095,3.5137,3.5146,3.513,3.515,3.5099,3.5173,3.5074,3.5176,3.5099,3.5122,3.5118,3.5124,3.513,3.5022,3.5193,3.547,3.5498,3.5134,3.5131,3.5128,0,3.5018,3.5089,3.5181,3.5192,3.5187,3.5231,3.5231,3.5234,3.526,3.5286,3.5302,3.5337,3.5357,3.5385,3.5345,3.5277,3.5453,3.5351,3.5443,3.5444,3.5485,3.5484,3.5772,3.5497,3.5497,3.5496,3.5496,0,3.5239,3.5327,3.5269,3.5326,3.5422,3.5367,3.5463,3.5454,3.5457,3.5511,3.544,3.5492,3.5435,3.5481,3.545,3.5539,3.5548,3.5538,3.5529,3.5546,3.5548,3.5563,3.555,3.5504,3.5502,3.5501,3.5499,0,3.5474,3.5438,3.5533,3.552,3.5518,3.559,3.5579,3.5631,3.5608,3.5677,3.569,3.5656,3.5707,3.5669,3.5719,3.5698,3.5817,3.5789,3.5815,3.5808,3.5903,3.5895,3.6213,3.6252,3.595,3.5953,3.5955,0,3.5618,3.5684,3.5677,3.5708,3.5712,3.5763,3.5788,3.5736,3.5765,3.578,3.5831,3.5875,3.5909,3.5994,3.5974,3.6012,3.5986,3.6095,3.5992,3.6007,3.599,3.5988,3.5995,3.6117,3.612,3.6123,3.6125,0,3.5879,3.5857,3.5897,3.5931,3.5963,3.5987,3.6005,3.6034,3.5981,3.6018,3.6069,3.6095,3.6146,3.6192,3.6222,3.6222,3.6167,3.6157,3.6181,3.62,3.6213,3.621,3.5874,3.6151,3.6149,3.6147,3.6145,3.6144,3.6074,3.6129,3.6133,3.6179,3.6187,3.6206,3.6254,3.6238,3.6279,3.6317,3.6283,3.6345,3.6351,3.6387,3.6393,3.6441,3.6397,3.643,3.6439,3.6449,3.6464,3.6204,3.6446,3.6445,3.6445,3.6444,3.6443,0,3.6333,3.6331,3.6374,3.6402,3.6438,3.638,3.6397,3.6432,3.6487,3.6497,3.6531,3.659,3.6634,3.6617,3.6655,3.6697,3.6672,3.6709,3.6707,3.6708,3.65,3.6477,3.6729,3.6729,3.6728,3.6728,3.6728,3.6728,3.6472,3.6562,3.6542,3.6635,3.6632,3.6692,3.6707,3.6723,3.6731,3.68,3.6836,3.6824,3.6824,3.6861,3.6899,3.6893,3.6912,3.6959,3.6944,3.6751,3.6723,3.6696,3.6674,3.6962,3.6963,3.7147,3.7149,3.715]},{"header":{"parameterUnit":"m.s-1","parameterCategory":1,"la1":30.2991,"la2":30.254,"lo1":-89.0895,"lo2":-89.0444,"dy":0.0017,"dx":0.0017,"nx":28,"ny":28,"refTime":"2024-06-26T09:00:00:Z","depth":0,"parameterNumber":3,"parameterNumberName":"V-component_of_WINDS"},"data":[0,0,0,0,0,0,0,0,0,0,0,0,0,0,0,0,0,0,0,0,0,0,0,0,0,0,0,0,0,0,0,0,0,0,0,0,0,0,0,0,0,0,0,0,0,0,0,0,0,0,0,0,0,0,0,0,0,0,-1.1948,-1.1949,0,-1.2053,-1.2054,-1.2055,-1.2106,-1.2106,-1.2106,-1.2106,-1.2215,-1.2218,-1.2221,0,0,0,0,0,0,0,0,0,0,0,0,0,-1.1792,-1.1794,-1.1948,-1.1949,-1.195,-1.2053,-1.2054,-1.2056,-1.2106,-1.2106,-1.2106,-1.2106,-1.2214,-1.2218,-1.2221,0,0,0,0,0,0,0,0,0,0,0,0,0,-1.1875,-1.1795,-1.1947,-1.1988,-1.1992,-1.2053,-1.2054,-1.2056,-1.2106,-1.2106,-1.2106,-1.2106,-1.2213,-1.2217,-1.2222,-1.2251,0,0,-1.2235,-1.2237,0,0,0,0,0,0,0,0,-1.187,-1.188,-1.198,-1.1985,-1.199,-1.2066,-1.204,-1.2121,-1.2106,-1.2063,-1.2106,-1.2106,-1.2166,-1.2174,-1.2194,-1.2256,-1.226,-1.2236,-1.2238,-1.224,-1.2242,0,0,0,0,0,0,0,-1.1864,-1.1876,-1.1989,-1.1982,-1.1988,-1.2001,-1.2013,-1.2055,-1.2113,-1.2067,-1.207,-1.2082,-1.2169,-1.219,-1.2197,-1.2262,-1.2236,-1.224,-1.2242,-1.2244,-1.2354,-1.2354,0,0,0,0,0,0,-1.1851,-1.1871,-1.1986,-1.1993,-1.1929,-1.2004,-1.2017,-1.2042,-1.2113,-1.2124,-1.2082,-1.2084,-1.2182,-1.2192,-1.2201,-1.224,-1.224,-1.2244,-1.2247,-1.2354,-1.2354,-1.2354,0,0,0,0,0,0,-1.1848,-1.1861,-1.1982,-1.1933,-1.1949,-1.2007,-1.2034,-1.2044,-1.2065,-1.2125,-1.2136,-1.2093,-1.2182,-1.2195,-1.2238,-1.2245,-1.2246,-1.225,-1.2353,-1.2354,-1.2354,-1.2318,0,0,0,0,0,0,-1.1843,-1.186,-1.1871,-1.1933,-1.1952,-1.2016,-1.2035,-1.2046,-1.2073,-1.2076,-1.2138,-1.2148,-1.2183,-1.2231,-1.2242,-1.2251,-1.2254,-1.2353,-1.2353,-1.2354,-1.2319,-1.2317,-1.2315,0,0,0,0,0,-1.1838,-1.1856,-1.1871,-1.1885,-1.1966,-1.2016,-1.2027,-1.2067,-1.2073,-1.2085,-1.2123,-1.2146,-1.2242,-1.2235,-1.2248,-1.2258,-1.2353,-1.2353,-1.2354,-1.2319,-1.2317,-1.2315,0,0,0,0,0,0,-1.1794,-1.1865,-1.1882,-1.1921,-1.1962,-1.2025,-1.2041,-1.2063,-1.2104,-1.2106,-1.2154,-1.2168,-1.2207,-1.2237,-1.2228,-1.229,-1.23,-1.2303,-1.2269,-1.2267,-1.2266,-1.2258,-1.2258,0,0,0,0,0,-1.1789,-1.1823,-1.1884,-1.1913,-1.1932,-1.1983,-1.2006,-1.2033,-1.2078,-1.2096,-1.2137,-1.218,-1.222,-1.2246,-1.2286,-1.2323,-1.2338,-1.2337,-1.2335,-1.2333,-1.2336,-1.2359,-1.2359,-1.2356,-1.2356,-1.2356,0,0,-1.1779,-1.1822,-1.1841,-1.1905,-1.194,-1.1975,-1.1997,-1.2033,-1.206,-1.2101,-1.2145,-1.2177,-1.2228,-1.2269,-1.2289,-1.2295,-1.234,-1.2334,-1.2332,-1.2336,-1.236,-1.236,-1.236,-1.2356,-1.2356,-1.2356,0,0,-1.1778,-1.1814,-1.1842,-1.1877,-1.193,-1.1963,-1.197,-1.2029,-1.2052,-1.2096,-1.2128,-1.2161,-1.2229,-1.2264,-1.2291,-1.2305,-1.2328,-1.2317,-1.2308,-1.233,-1.233,-1.2331,-1.2336,-1.2338,-1.2319,-1.2319,-1.2319,0,-1.1759,-1.1812,-1.1854,-1.1888,-1.1916,-1.1955,-1.1985,-1.2017,-1.208,-1.2098,-1.2104,-1.2191,-1.2228,-1.2278,-1.2281,-1.2301,-1.2311,-1.231,-1.2327,-1.2328,-1.2329,-1.2335,-1.2337,-1.2317,-1.2317,-1.2317,-1.2318,0,-1.1787,-1.1823,-1.184,-1.19,-1.1929,-1.1961,-1.2008,-1.2033,-1.2058,-1.2091,-1.2136,-1.2183,-1.2233,-1.2247,-1.2272,-1.2301,-1.2303,-1.2317,-1.2328,-1.2327,-1.2333,-1.2336,-1.2315,-1.2315,-1.2316,-1.2316,0,0,-1.1761,-1.1844,-1.1849,-1.1877,-1.1938,-1.1968,-1.2002,-1.2051,-1.2072,-1.2114,-1.2144,-1.2201,-1.2215,-1.2245,-1.2274,-1.2294,-1.2302,-1.2306,-1.2308,-1.2304,-1.2339,-1.2327,-1.2329,-1.2318,-1.2319,-1.2319,-1.2334,0,-1.177,-1.1831,-1.187,-1.1917,-1.1951,-1.199,-1.2019,-1.206,-1.2093,-1.2128,-1.2164,-1.2203,-1.2218,-1.2237,-1.2258,-1.2297,-1.231,-1.2296,-1.2347,-1.2349,-1.2333,-1.2333,-1.2321,-1.2333,-1.2337,-1.2338,-1.2338,0,-1.1787,-1.1828,-1.1878,-1.1936,-1.1952,-1.1978,-1.2026,-1.2059,-1.2107,-1.2129,-1.2163,-1.2193,-1.2231,-1.2239,-1.2293,-1.2282,-1.2306,-1.2328,-1.233,-1.2336,-1.2343,-1.2339,-1.2338,-1.2339,-1.2342,-1.2342,-1.2341,0,-1.1764,-1.1832,-1.1871,-1.1893,-1.1962,-1.1979,-1.2009,-1.2057,-1.2084,-1.2126,-1.2145,-1.2191,-1.2217,-1.2253,-1.2295,-1.2296,-1.2345,-1.2356,-1.2365,-1.2364,-1.2374,-1.2373,-1.2376,-1.2388,-1.2388,-1.2388,-1.2388,0,-1.1769,-1.1798,-1.1861,-1.1885,-1.1919,-1.1964,-1.1997,-1.203,-1.2072,-1.2104,-1.214,-1.2169,-1.2222,-1.2258,-1.2291,-1.2331,-1.2343,-1.2362,-1.2371,-1.2359,-1.2357,-1.2375,-1.2376,-1.2389,-1.2389,-1.2389,-1.2389,0,-1.1749,-1.1792,-1.1837,-1.1898,-1.1915,-1.1937,-1.199,-1.2015,-1.2049,-1.2089,-1.2101,-1.2155,-1.2199,-1.2245,-1.2305,-1.2327,-1.2366,-1.2378,-1.235,-1.2355,-1.2362,-1.2361,-1.2378,-1.2383,-1.2391,-1.2391,-1.239,0,-1.175,-1.1773,-1.1837,-1.186,-1.1888,-1.1926,-1.1954,-1.1999,-1.2027,-1.2084,-1.2102,-1.2149,-1.2189,-1.2258,-1.2303,-1.235,-1.2363,-1.2366,-1.237,-1.2358,-1.2364,-1.2362,-1.2365,-1.2364,-1.2364,-1.2363,-1.2363,0,-1.1746,-1.1766,-1.1805,-1.1851,-1.1883,-1.1922,-1.1962,-1.1979,-1.2033,-1.2062,-1.2108,-1.2139,-1.22,-1.2246,-1.2298,-1.233,-1.2356,-1.2361,-1.2366,-1.2355,-1.2338,-1.2347,-1.2346,-1.2361,-1.2361,-1.2361,-1.2361,-1.2361,-1.1737,-1.1759,-1.1808,-1.1849,-1.1884,-1.1921,-1.1948,-1.1986,-1.2024,-1.2077,-1.2102,-1.2147,-1.2196,-1.2268,-1.23,-1.2337,-1.2344,-1.2351,-1.2353,-1.2354,-1.2351,-1.2331,-1.2346,-1.2347,-1.2347,-1.2347,-1.2347,0,-1.1735,-1.1768,-1.1806,-1.1861,-1.1894,-1.1915,-1.1961,-1.1987,-1.2027,-1.207,-1.2108,-1.2161,-1.2206,-1.2255,-1.2304,-1.2325,-1.2338,-1.2336,-1.2335,-1.2342,-1.2342,-1.2333,-1.2324,-1.2324,-1.2324,-1.2324,-1.2324,-1.2324,-1.1738,-1.1778,-1.1804,-1.1862,-1.1895,-1.1939,-1.1964,-1.1998,-1.2033,-1.209,-1.2127,-1.2159,-1.2205,-1.2257,-1.23,-1.2314,-1.233,-1.2325,-1.2341,-1.234,-1.2342,-1.2343,-1.2335,-1.2328,-1.2328,-1.2339,-1.2339,-1.2339]}]]